This demonstration page uses our WeatherBlox Daily Observations layout. Learn more.

Left ArrowRight Arrow

39.01783, -85.05884

Hourly Observations for December 29, 2020

Temp ( °F °C ) Dew Point ( °F °C ) Humidity (%) Winds ( mph kmh ) Pressure ( in mb ) Visibility ( mi km ) Precip ( " mm )
12:52 am 00:52 Cloudy 29 -1.7 19 -7.2 66 66 N 7 11 30.49 1032 10 16 N/A
1:52 am 01:52 Cloudy 29 -1.7 19 -7.2 66 66 NNW 7 11 30.49 1033 10 16 N/A
2:52 am 02:52 Cloudy 29 -1.7 19 -7.2 66 66 N 5 7 30.50 1033 10 16 N/A
3:52 am 03:52 Cloudy 28 -2.2 20 -6.7 72 72 W 3 6 30.52 1034 10 16 N/A
4:52 am 04:52 Cloudy 29 -1.7 18 -7.8 63 63 N 6 9 30.53 1034 10 16 N/A
5:26 am 05:26 Cloudy 29 -1.7 18 -7.8 63 63 N 9 15 30.57 1035 10 16 N/A
5:52 am 05:52 Cloudy 29 -1.7 17 -8.3 61 61 N 12 19 30.55 1035 10 16 N/A
6:52 am 06:52 Mostly Cloudy 28 -2.2 17 -8.3 63 63 NNE 8 13 30.57 1035 10 16 N/A
7:52 am 07:52 Mostly Clear 26 -3.3 18 -7.8 71 71 NNE 5 7 30.58 1036 10 16 N/A
8:52 am 08:52 Mostly Sunny 28 -2.2 19 -7.2 69 69 NNE 7 11 30.58 1036 10 16 N/A
9:52 am 09:52 Mostly Cloudy 30 -1.1 20 -6.7 66 66 ENE 7 11 30.60 1036 9 14 N/A
10:52 am 10:52 Mostly Cloudy 32 undefined 19 -7.2 59 59 E 13 20 30.58 1035 10 16 N/A
11:52 am 11:52 Mostly Cloudy 33 0.6 19 -7.2 56 56 ESE 9 15 30.54 1034 10 16 N/A
12:52 pm 12:52 Sunny 35 1.7 17 -8.3 48 48 ESE 12 19 30.50 1033 10 16 N/A
1:52 pm 13:52 Partly Cloudy 36 2.2 17 -8.3 46 46 SE 6 9 30.50 1033 10 16 N/A
2:52 pm 14:52 Mostly Cloudy 37 2.8 17 -8.3 44 44 ESE 8 13 30.48 1032 10 16 N/A
3:52 pm 15:52 Cloudy 36 2.2 17 -8.3 46 46 ESE 14 22 30.43 1031 10 16 N/A
4:52 pm 16:52 Cloudy 36 2.2 19 -7.2 50 50 E 12 19 30.43 1030 10 16 N/A
5:52 pm 17:52 Cloudy 35 1.7 19 -7.2 52 52 E 10 17 30.40 1030 10 16 N/A
6:52 pm 18:52 Cloudy 36 2.2 19 -7.2 50 50 E 12 19 30.38 1029 10 16 N/A
7:52 pm 19:52 Cloudy 35 1.7 20 -6.7 54 54 ESE 8 13 30.38 1029 10 16 N/A
8:52 pm 20:52 Cloudy 35 1.7 21 -6.1 57 57 E 10 17 30.36 1028 10 16 N/A
9:52 pm 21:52 Mostly Cloudy 34 1.1 21 -6.1 59 59 ESE 9 15 30.33 1027 10 16 N/A
10:52 pm 22:52 Mostly Cloudy 33 0.6 21 -6.1 61 61 ESE 12 19 30.28 1026 10 16 N/A
11:52 pm 23:52 Mostly Cloudy 34 1.1 22 -5.6 61 61 SE 14 22 30.23 1024 10 16 N/A

Powered by AerisWeather